| time (UTC) | temp F | wind direction | speed knots | gust knots | rain 1hr in | rain 24hr in | rain mn in | humidity % | barometer mb |
| 20260507054558 | 69 | 315 | 0.0 | 1.7 | 0.00 | 0.00 | 0.00 | 54 | 1011.6 |
| 20260507053616 | 68 | 315 | 0.9 | 2.6 | 0.00 | 0.00 | 0.00 | 55 | 1011.8 |
| 20260507052559 | 68 | 315 | 0.9 | 1.7 | 0.00 | 0.00 | 0.00 | 57 | 1011.8 |
| 20260507051535 | 67 | 0.0 | 0.0 | 0.00 | 0.00 | 0.00 | 59 | 1011.9 | |
| 20260507050621 | 66 | 0.0 | 0.0 | 0.00 | 0.00 | 0.00 | 60 | 1012.0 | |
| 20260507045535 | 66 | 0.0 | 0.0 | 0.00 | 0.00 | 0.00 | 60 | 1012.0 | |
| 20260507044602 | 65 | 0.0 | 0.0 | 0.00 | 0.00 | 0.00 | 61 | 1011.8 | |
| 20260507043535 | 64 | 0.0 | 0.9 | 0.00 | 0.00 | 0.00 | 62 | 1011.9 | |
| 20260507042559 | 64 | 0.0 | 0.9 | 0.00 | 0.00 | 0.00 | 62 | 1011.9 | |
| 20260507041536 | 63 | 0.0 | 0.9 | 0.00 | 0.00 | 0.00 | 66 | 1011.9 | |
| 20260507040559 | 63 | 315 | 0.9 | 1.7 | 0.00 | 0.00 | 0.00 | 67 | 1011.9 |
| 20260507035542 | 62 | 315 | 1.7 | 3.5 | 0.00 | 0.00 | 0.00 | 67 | 1011.9 |
| 20260507034559 | 62 | 0.0 | 1.7 | 0.00 | 0.00 | 0.00 | 67 | 1012.1 | |
| 20260507033537 | 61 | 315 | 0.0 | 1.7 | 0.00 | 0.00 | 0.00 | 68 | 1012.2 |
| 20260507032826 | 61 | 315 | 0.9 | 1.7 | 0.00 | 0.00 | 0.00 | 68 | 1012.1 |
| 20260507031535 | 61 | 315 | 0.9 | 2.6 | 0.00 | 0.00 | 0.00 | 68 | 1012.1 |
| 20260507030559 | 61 | 315 | 0.9 | 2.6 | 0.00 | 0.00 | 0.00 | 68 | 1012.1 |
| 20260507025535 | 60 | 315 | 1.7 | 3.5 | 0.00 | 0.00 | 0.00 | 68 | 1012.2 |
| 20260507024600 | 60 | 315 | 1.7 | 4.3 | 0.00 | 0.00 | 0.00 | 68 | 1012.3 |
| 20260507023555 | 59 | 315 | 0.9 | 3.5 | 0.00 | 0.00 | 0.00 | 67 | 1012.3 |
| 20260507022639 | 59 | 315 | 0.0 | 1.7 | 0.00 | 0.00 | 0.00 | 66 | 1012.3 |
| 20260507021544 | 59 | 315 | 1.7 | 3.5 | 0.00 | 0.00 | 0.00 | 67 | 1012.5 |
| 20260507020620 | 59 | 315 | 1.7 | 3.5 | 0.00 | 0.00 | 0.00 | 66 | 1012.7 |
| 20260507015535 | 59 | 315 | 1.7 | 4.3 | 0.00 | 0.00 | 0.00 | 65 | 1012.7 |
| 20260507014619 | 59 | 315 | 1.7 | 4.3 | 0.00 | 0.00 | 0.00 | 65 | 1012.8 |
| 20260507013536 | 59 | 315 | 1.7 | 4.3 | 0.00 | 0.00 | 0.00 | 64 | 1012.9 |
| 20260507012642 | 60 | 315 | 2.6 | 4.3 | 0.00 | 0.00 | 0.00 | 63 | 1013.0 |
| 20260507011535 | 60 | 315 | 2.6 | 3.5 | 0.00 | 0.00 | 0.00 | 62 | 1013.0 |
| 20260507010559 | 61 | 315 | 2.6 | 4.3 | 0.00 | 0.00 | 0.00 | 62 | 1013.1 |
| 20260507005536 | 61 | 315 | 3.5 | 4.3 | 0.00 | 0.00 | 0.00 | 61 | 1013.1 |
| 20260507004708 | 61 | 315 | 2.6 | 4.3 | 0.00 | 0.00 | 0.00 | 61 | 1013.2 |
| 20260507003537 | 61 | 315 | 3.5 | 5.2 | 0.00 | 0.00 | 0.00 | 61 | 1013.2 |
| 20260507002620 | 61 | 315 | 0.9 | 2.6 | 0.00 | 0.00 | 0.00 | 61 | 1013.3 |
| 20260507001536 | 61 | 315 | 0.0 | 2.6 | 0.00 | 0.00 | 0.00 | 61 | 1013.3 |
| 20260507000600 | 61 | 315 | 0.9 | 1.7 | 0.00 | 0.00 | 0.00 | 60 | 1013.3 |
| 20260506235535 | 61 | 315 | 0.9 | 1.7 | 0.00 | 0.00 | 0.00 | 60 | 1013.3 |
| 20260506234600 | 61 | 315 | 0.9 | 3.5 | 0.00 | 0.00 | 0.00 | 60 | 1013.3 |
| 20260506233536 | 62 | 315 | 0.0 | 1.7 | 0.00 | 0.00 | 0.00 | 60 | 1013.3 |
| 20260506232559 | 62 | 315 | 1.7 | 2.6 | 0.00 | 0.00 | 0.00 | 59 | 1013.4 |
| 20260506231536 | 62 | 315 | 0.9 | 1.7 | 0.00 | 0.00 | 0.00 | 57 | 1013.4 |
| 20260506230601 | 63 | 315 | 1.7 | 4.3 | 0.00 | 0.00 | 0.00 | 56 | 1013.4 |
| 20260506225536 | 63 | 315 | 1.7 | 4.3 | 0.00 | 0.00 | 0.00 | 55 | 1013.4 |
| 20260506224652 | 63 | 315 | 0.9 | 1.7 | 0.00 | 0.00 | 0.00 | 54 | 1013.4 |
| 20260506223535 | 63 | 315 | 0.0 | 1.7 | 0.00 | 0.00 | 0.00 | 51 | 1013.3 |
| 20260506222603 | 64 | 315 | 2.6 | 7.8 | 0.00 | 0.00 | 0.00 | 50 | 1013.4 |
| 20260506221623 | 64 | 315 | 2.6 | 7.0 | 0.00 | 0.00 | 0.00 | 50 | 1013.4 |
| 20260506220620 | 64 | 315 | 1.7 | 4.3 | 0.00 | 0.00 | 0.00 | 50 | 1013.4 |
| 20260506215535 | 65 | 315 | 0.0 | 1.7 | 0.00 | 0.00 | 0.00 | 50 | 1013.4 |
| 20260506214600 | 65 | 315 | 2.6 | 6.1 | 0.00 | 0.00 | 0.00 | 50 | 1013.3 |
| 20260506213543 | 65 | 315 | 0.0 | 1.7 | 0.00 | 0.00 | 0.00 | 50 | 1013.2 |
| 20260506212600 | 65 | 315 | 0.9 | 2.6 | 0.00 | 0.00 | 0.00 | 51 | 1013.2 |
| 20260506211536 | 65 | 315 | 2.6 | 7.0 | 0.00 | 0.00 | 0.00 | 51 | 1013.2 |
| 20260506210600 | 66 | 315 | 1.7 | 4.3 | 0.00 | 0.00 | 0.00 | 51 | 1013.3 |
| 20260506205224 | 66 | 315 | 3.5 | 7.8 | 0.00 | 0.00 | 0.00 | 51 | 1013.2 |
| 20260506204025 | 67 | 315 | 2.6 | 7.0 | 0.00 | 0.00 | 0.00 | 51 | 1013.1 |
| 20260506203050 | 67 | 315 | 1.7 | 7.0 | 0.00 | 0.00 | 0.00 | 51 | 1013.1 |
| 20260506202024 | 67 | 315 | 2.6 | 5.2 | 0.00 | 0.00 | 0.00 | 51 | 1013.0 |
| 20260506200603 | 68 | 315 | 0.9 | 3.5 | 0.00 | 0.00 | 0.00 | 51 | 1012.9 |
| 20260506195629 | 68 | 315 | 0.0 | 1.7 | 0.00 | 0.00 | 0.00 | 51 | 1012.7 |
| 20260506194620 | 68 | 315 | 0.9 | 4.3 | 0.00 | 0.00 | 0.00 | 51 | 1012.6 |
| 20260506193636 | 68 | 315 | 2.6 | 5.2 | 0.00 | 0.00 | 0.00 | 51 | 1012.5 |
| 20260506192602 | 69 | 315 | 0.0 | 1.7 | 0.00 | 0.00 | 0.00 | 51 | 1012.4 |
| 20260506191538 | 69 | 315 | 0.9 | 2.6 | 0.00 | 0.00 | 0.00 | 51 | 1012.4 |
| 20260506190828 | 69 | 315 | 0.9 | 4.3 | 0.00 | 0.00 | 0.00 | 51 | 1012.4 |
| 20260506185541 | 70 | 315 | 0.9 | 4.3 | 0.00 | 0.00 | 0.00 | 51 | 1012.4 |
| 20260506184600 | 70 | 315 | 1.7 | 3.5 | 0.00 | 0.00 | 0.00 | 51 | 1012.3 |
| 20260506183632 | 70 | 315 | 2.6 | 4.3 | 0.00 | 0.00 | 0.00 | 50 | 1012.3 |
| 20260506182600 | 71 | 315 | 0.9 | 2.6 | 0.00 | 0.00 | 0.00 | 50 | 1012.3 |
| 20260506181542 | 71 | 315 | 4.3 | 7.0 | 0.00 | 0.00 | 0.00 | 49 | 1012.2 |
| 20260506180601 | 72 | 315 | 4.3 | 7.0 | 0.00 | 0.00 | 0.00 | 48 | 1012.1 |
| 20260506175536 | 72 | 315 | 5.2 | 7.0 | 0.00 | 0.00 | 0.00 | 47 | 1012.1 |
| 20260506174622 | 73 | 315 | 5.2 | 7.8 | 0.00 | 0.00 | 0.00 | 43 | 1012.0 |
| 20260506173537 | 73 | 315 | 2.6 | 4.3 | 0.00 | 0.00 | 0.00 | 43 | 1011.9 |
| 20260506172609 | 74 | 315 | 2.6 | 5.2 | 0.00 | 0.00 | 0.00 | 42 | 1011.7 |
| 20260506171558 | 74 | 315 | 3.5 | 6.1 | 0.00 | 0.00 | 0.00 | 41 | 1011.7 |
| 20260506170605 | 74 | 315 | 2.6 | 4.3 | 0.00 | 0.00 | 0.00 | 41 | 1011.5 |
| 20260506165712 | 75 | 315 | 2.6 | 4.3 | 0.00 | 0.00 | 0.00 | 40 | 1011.4 |
| 20260506164649 | 75 | 315 | 0.0 | 1.7 | 0.00 | 0.00 | 0.00 | 37 | 1011.2 |
| 20260506163624 | 76 | 315 | 2.6 | 3.5 | 0.00 | 0.00 | 0.00 | 36 | 1011.1 |
| 20260506163357 | 76 | 315 | 2.6 | 4.3 | 0.00 | 0.00 | 0.00 | 35 | 1011.1 |
| 20260506161558 | 77 | 315 | 4.3 | 7.0 | 0.00 | 0.00 | 0.00 | 34 | 1011.1 |
| 20260506160601 | 80 | 315 | 2.6 | 3.5 | 0.00 | 0.00 | 0.00 | 32 | 1011.0 |
| 20260506155625 | 80 | 315 | 5.2 | 8.7 | 0.00 | 0.00 | 0.00 | 31 | 1011.0 |
| 20260506154600 | 82 | 315 | 1.7 | 5.2 | 0.00 | 0.00 | 0.00 | 29 | 1010.9 |
| 20260506153536 | 82 | 315 | 3.5 | 8.7 | 0.00 | 0.00 | 0.00 | 29 | 1010.8 |
| 20260506152606 | 81 | 315 | 4.3 | 7.0 | 0.00 | 0.00 | 0.00 | 31 | 1010.8 |
| 20260506151536 | 81 | 315 | 2.6 | 4.3 | 0.00 | 0.00 | 0.00 | 31 | 1010.7 |
| 20260506150616 | 82 | 315 | 5.2 | 8.7 | 0.00 | 0.00 | 0.00 | 28 | 1010.8 |
| 20260506145539 | 83 | 315 | 4.3 | 7.0 | 0.00 | 0.00 | 0.00 | 26 | 1010.6 |
| 20260506144601 | 83 | 315 | 1.7 | 4.3 | 0.00 | 0.00 | 0.00 | 26 | 1010.6 |
| 20260506143543 | 84 | 315 | 1.7 | 7.0 | 0.00 | 0.00 | 0.00 | 27 | 1010.5 |
| 20260506142600 | 82 | 315 | 4.3 | 7.0 | 0.00 | 0.00 | 0.00 | 29 | 1010.6 |
| 20260506141536 | 82 | 315 | 6.1 | 9.6 | 0.00 | 0.00 | 0.00 | 28 | 1010.6 |
| 20260506140600 | 82 | 315 | 2.6 | 9.6 | 0.00 | 0.00 | 0.00 | 29 | 1010.5 |
| 20260506135537 | 80 | 315 | 6.1 | 9.6 | 0.00 | 0.00 | 0.00 | 32 | 1010.5 |
| 20260506134606 | 80 | 315 | 8.7 | 14.8 | 0.00 | 0.00 | 0.00 | 31 | 1010.5 |
| 20260506133537 | 81 | 315 | 4.3 | 8.7 | 0.00 | 0.00 | 0.00 | 31 | 1010.4 |
| 20260506132600 | 79 | 315 | 7.0 | 11.3 | 0.00 | 0.00 | 0.00 | 32 | 1010.3 |
| 20260506131537 | 79 | 315 | 6.1 | 12.2 | 0.00 | 0.00 | 0.00 | 31 | 1010.2 |
| 20260506130621 | 80 | 315 | 8.7 | 14.8 | 0.00 | 0.00 | 0.00 | 30 | 1010.2 |
| 20260506125537 | 80 | 315 | 5.2 | 12.2 | 0.00 | 0.00 | 0.00 | 31 | 1010.2 |
| 20260506124629 | 80 | 315 | 7.0 | 16.5 | 0.00 | 0.00 | 0.00 | 31 | 1010.3 |
| 20260506123536 | 80 | 315 | 3.5 | 6.1 | 0.00 | 0.00 | 0.00 | 31 | 1010.2 |
| 20260506122621 | 80 | 315 | 6.1 | 13.9 | 0.00 | 0.00 | 0.00 | 31 | 1010.3 |
| 20260506121537 | 80 | 315 | 5.2 | 12.2 | 0.00 | 0.00 | 0.00 | 31 | 1010.2 |
| 20260506120601 | 80 | 315 | 7.8 | 13.0 | 0.00 | 0.00 | 0.00 | 31 | 1010.2 |
| 20260506115557 | 80 | 315 | 6.1 | 12.2 | 0.00 | 0.00 | 0.00 | 31 | 1010.2 |
| 20260506114601 | 79 | 315 | 6.1 | 13.9 | 0.00 | 0.00 | 0.00 | 31 | 1010.2 |
| 20260506113536 | 79 | 315 | 5.2 | 12.2 | 0.00 | 0.00 | 0.00 | 31 | 1010.3 |
| 20260506112738 | 79 | 315 | 4.3 | 7.8 | 0.00 | 0.00 | 0.00 | 31 | 1010.3 |
| 20260506111537 | 78 | 315 | 3.5 | 6.1 | 0.00 | 0.00 | 0.00 | 31 | 1010.3 |
| 20260506110601 | 77 | 315 | 2.6 | 5.2 | 0.00 | 0.00 | 0.00 | 33 | 1010.3 |
| 20260506105542 | 76 | 315 | 3.5 | 9.6 | 0.00 | 0.00 | 0.00 | 33 | 1010.3 |
| 20260506104601 | 76 | 315 | 7.8 | 11.3 | 0.00 | 0.00 | 0.00 | 34 | 1010.4 |
| 20260506103557 | 76 | 315 | 7.8 | 13.9 | 0.00 | 0.00 | 0.00 | 34 | 1010.3 |
| 20260506102607 | 76 | 315 | 3.5 | 7.8 | 0.00 | 0.00 | 0.00 | 34 | 1010.3 |
| 20260506101537 | 75 | 315 | 5.2 | 9.6 | 0.00 | 0.00 | 0.00 | 34 | 1010.3 |
| 20260506100601 | 75 | 315 | 5.2 | 8.7 | 0.00 | 0.00 | 0.00 | 34 | 1010.4 |
| 20260506095537 | 75 | 315 | 4.3 | 8.7 | 0.00 | 0.00 | 0.00 | 36 | 1010.3 |
| 20260506094601 | 75 | 315 | 7.0 | 12.2 | 0.00 | 0.00 | 0.00 | 37 | 1010.3 |
| 20260506093638 | 74 | 315 | 4.3 | 9.6 | 0.00 | 0.00 | 0.00 | 36 | 1010.3 |
| 20260506092621 | 74 | 315 | 7.8 | 10.4 | 0.00 | 0.00 | 0.00 | 37 | 1010.2 |
| 20260506091537 | 74 | 315 | 7.8 | 14.8 | 0.00 | 0.00 | 0.00 | 39 | 1010.2 |
| 20260506090603 | 74 | 315 | 4.3 | 5.2 | 0.00 | 0.00 | 0.00 | 39 | 1010.2 |
| 20260506085617 | 74 | 315 | 5.2 | 9.6 | 0.00 | 0.00 | 0.00 | 40 | 1010.2 |
| 20260506084601 | 73 | 315 | 3.5 | 5.2 | 0.00 | 0.00 | 0.00 | 40 | 1010.2 |
| 20260506083645 | 73 | 315 | 3.5 | 6.1 | 0.00 | 0.00 | 0.00 | 40 | 1010.2 |
| 20260506082649 | 72 | 315 | 1.7 | 3.5 | 0.00 | 0.00 | 0.00 | 42 | 1010.3 |
| 20260506081539 | 72 | 315 | 1.7 | 5.2 | 0.00 | 0.00 | 0.00 | 43 | 1010.4 |
| 20260506080601 | 71 | 315 | 0.9 | 4.3 | 0.00 | 0.00 | 0.00 | 43 | 1010.4 |
| 20260506072601 | 71 | 315 | 6.1 | 9.6 | 0.00 | 0.00 | 0.00 | 49 | 1010.6 |
| 20260506071705 | 71 | 315 | 5.2 | 12.2 | 0.00 | 0.00 | 0.00 | 49 | 1010.6 |
| 20260506070709 | 71 | 315 | 5.2 | 9.6 | 0.00 | 0.00 | 0.00 | 47 | 1010.5 |
| 20260506061537 | 71 | 315 | 6.1 | 9.6 | 0.00 | 0.00 | 0.00 | 45 | 1010.0 |
| 20260506060601 | 70 | 315 | 2.6 | 4.3 | 0.00 | 0.00 | 0.00 | 46 | 1009.8 |